Theta_e
313 314 315 314 313 313 313 312 313 316 318 319 319 321 322 323 324 325 328 329 331 331 331 330 330 331 330 330 331 334 335 336 335 335 337 335 338 340 344 344 344 344 346 345
311 312 312 313 313 312 311 313 314 314 315 319 320 321 321 323 323 324 325 327 329 329 330 331 330 329 330 331 332 332 335 337 339 336 337 336 339 341 344 344 344 346 346 346
311 311 311 311 311 312 311 312 312 313 315 317 320 321 322 322 322 323 323 324 326 327 329 330 330 331 330 331 332 332 335 337 340 338 336 341 344 346 345 346 346 346 346 344
310 310 310 310 310 311 312 312 311 312 313 315 318 323 322 322 323 323 324 324 325 326 326 327 328 332 330 330 329 330 333 337 340 342 337 342 345 345 346 347 347 344 344 344
309 310 311 311 311 312 311 311 311 311 312 314 314 318 319 321 323 323 324 324 325 325 327 327 327 327 326 327 329 330 333 338 339 340 340 342 346 344 345 346 348 344 344 343
311 312 313 311 312 312 313 311 311 312 312 314 314 317 318 320 321 322 323 324 324 324 325 325 325 326 325 324 325 329 334 337 339 338 344 347 347 347 347 347 344 343 342 341
311 311 313 313 315 313 312 311 311 311 312 313 314 318 318 319 320 321 322 323 324 324 324 324 324 325 325 325 324 326 329 334 337 340 344 346 349 351 351 346 343 344 343 344
312 315 312 311 315 315 314 311 311 311 311 311 313 315 317 319 321 321 321 321 321 324 324 324 326 326 327 326 326 327 331 340 343 345 347 348 349 349 350 346 347 346 345 345
313 313 310 311 314 312 314 313 313 315 314 315 313 314 317 317 319 320 321 322 323 325 327 329 330 332 332 326 327 336 340 342 345 346 347 349 349 349 348 350 348 346 345 345
310 311 310 312 313 313 313 315 318 316 314 313 313 315 317 316 318 320 321 324 325 325 333 336 335 334 331 335 343 344 344 346 347 348 349 349 351 350 350 347 346 344 343 341
309 311 311 311 312 315 314 315 315 318 316 315 313 317 317 319 318 320 321 323 324 330 340 340 341 341 344 344 347 348 347 347 347 348 350 349 349 348 346 344 342 342 340 339
311 313 313 311 311 313 311 311 314 317 315 318 317 316 317 321 323 321 322 322 323 334 341 340 342 344 346 346 347 348 347 348 348 347 347 347 346 344 342 341 340 339 338 337
315 313 315 312 310 315 315 314 314 315 316 320 322 322 320 322 322 322 322 321 321 325 342 343 343 348 346 346 346 347 346 346 346 345 345 344 342 341 340 340 339 337 336 334
311 315 314 314 311 314 315 314 313 317 318 317 317 316 317 318 320 320 320 320 319 323 343 343 344 346 346 345 345 344 343 343 343 342 341 341 340 340 339 338 337 335 333 333
312 315 313 313 312 311 311 311 310 311 311 313 313 312 315 317 319 319 318 317 319 321 332 343 342 345 346 346 343 342 341 340 339 339 339 339 338 337 336 334 333 333 332 332
313 317 314 313 312 312 311 311 310 310 310 310 310 311 312 313 315 315 316 316 317 321 325 342 342 343 343 343 341 339 338 337 336 336 335 334 333 333 334 334 333 332 331 330
315 314 314 315 312 312 314 311 310 310 310 310 310 311 312 313 314 315 316 316 317 319 321 341 342 342 342 340 339 338 336 334 332 332 332 333 333 334 334 333 332 331 330 330
313 314 313 316 315 316 311 310 311 311 312 313 313 311 312 313 313 315 315 316 316 318 321 340 341 341 341 339 337 335 332 331 331 331 332 332 333 333 332 331 330 331 332 333
312 314 315 317 319 314 313 317 317 318 317 315 316 317 315 316 317 317 317 316 317 320 328 337 340 342 339 338 336 332 331 331 331 331 332 332 331 331 331 331 331 331 332 332
313 312 316 316 320 318 317 315 314 315 319 320 320 319 317 317 318 316 317 325 330 331 333 340 341 340 338 338 334 331 331 330 331 331 333 332 331 330 330 330 330 331 332 331
318 315 316 315 317 316 315 311 309 319 319 315 316 319 321 324 323 321 320 324 326 331 331 340 341 340 338 336 332 331 330 332 332 332 332 332 330 330 330 331 331 330 331 330
320 320 322 321 321 323 312 312 313 315 313 311 314 317 320 321 322 325 323 325 330 333 340 340 341 341 337 335 331 331 332 333 333 333 332 331 330 330 330 330 332 332 333 333
319 316 316 316 318 314 313 312 310 309 308 309 311 314 318 322 322 324 326 329 333 334 340 340 337 337 336 333 330 331 333 333 333 333 331 330 330 329 330 332 332 334 335 335
315 310 312 314 314 314 314 310 309 309 312 318 316 315 318 318 326 329 329 332 334 338 338 337 337 337 335 331 329 332 332 333 333 331 330 330 331 332 332 333 334 335 337 335
316 315 315 316 314 313 312 312 310 309 311 314 315 317 319 321 327 330 331 334 334 337 339 336 335 334 332 329 330 332 333 333 332 330 330 331 331 332 334 333 334 336 332 331
315 316 317 316 314 313 313 312 309 310 312 312 313 315 317 320 324 329 329 333 334 338 339 334 331 330 329 329 331 332 333 333 332 331 330 331 330 332 333 332 330 329 329 330
Wind_Speed
9 13 14 17 16 20 22 26 32 30 24 24 30 29 34 31 29 27 26 25 30 29 26 30 29 19 19 18 20 19 22 25 20 19 19 20 20 22 20 21 21 21 21 24
14 16 16 17 20 20 22 25 28 27 29 23 22 26 33 26 28 27 27 28 27 22 21 20 23 21 22 23 23 20 25 25 21 20 19 20 18 20 20 19 20 21 22 22
16 17 19 19 16 18 20 22 24 27 24 26 26 28 32 30 30 25 26 28 28 28 26 24 23 23 24 23 22 24 25 24 22 23 20 15 15 14 17 18 18 20 21 22
17 16 16 16 20 20 22 20 22 21 21 21 26 23 26 26 27 27 28 26 24 23 23 21 22 22 28 28 27 25 24 22 22 23 23 19 17 16 18 17 18 20 21 21
19 20 22 23 22 18 22 22 22 23 22 24 29 21 24 24 25 26 26 27 28 25 22 23 24 24 30 29 25 25 23 22 20 21 22 21 20 18 15 17 16 19 18 21
21 11 22 20 23 21 23 18 24 21 20 21 28 26 24 23 26 22 19 20 17 19 22 22 23 30 26 25 26 22 23 22 21 22 22 20 20 18 18 17 18 18 19 21
19 20 9 17 16 22 17 18 13 16 17 19 22 24 23 23 28 27 26 24 23 14 17 18 17 17 17 23 23 21 19 20 22 22 21 22 19 16 19 21 21 21 21 21
11 16 8 8 15 17 16 18 14 21 15 17 22 25 21 26 28 13 18 16 17 13 10 14 15 13 13 16 18 20 21 18 18 18 19 20 20 20 21 22 23 21 22 23
12 10 19 15 10 13 16 17 16 20 24 18 18 28 28 29 23 18 18 12 10 10 10 10 12 12 12 16 18 18 15 17 17 19 20 21 21 21 21 20 23 23 19 20
14 19 16 14 9 13 14 14 4 14 23 24 17 23 17 30 28 17 16 6 3 9 7 11 7 9 11 8 8 14 16 17 19 21 21 22 20 20 22 22 18 22 23 19
17 15 18 17 14 15 8 12 15 9 10 14 18 10 13 25 30 21 7 5 6 4 4 5 3 5 6 13 15 16 19 21 20 21 21 24 23 24 23 20 20 18 18 17
22 11 14 21 16 17 2 11 10 9 8 19 16 19 21 25 26 27 12 6 9 9 3 2 3 5 13 16 19 20 22 24 24 23 24 24 25 23 22 21 19 18 16 15
9 6 9 15 16 15 7 12 9 12 8 19 8 7 18 16 17 11 9 11 15 11 8 7 2 9 14 16 20 22 23 23 25 25 24 24 23 22 21 19 17 15 13 12
12 14 17 16 22 9 6 19 14 17 10 15 16 17 19 27 3 9 8 10 14 13 11 9 2 3 9 16 22 22 23 23 23 24 23 22 21 20 19 17 15 13 13 13
5 12 19 21 24 24 20 19 14 19 21 20 19 17 12 18 21 24 10 12 14 10 8 11 1 2 5 5 15 22 23 23 23 23 22 20 19 17 16 15 14 14 14 13
7 9 15 20 22 23 23 21 18 21 26 23 22 22 16 17 19 18 15 14 12 12 8 11 8 5 7 9 19 23 23 23 22 20 19 19 18 17 17 16 15 15 14 12
5 8 10 17 19 14 16 19 19 18 23 22 21 19 17 15 16 16 14 14 12 14 10 11 12 7 7 12 19 22 23 22 21 20 20 19 17 16 16 17 17 15 15 11
4 9 10 12 12 10 11 8 6 10 16 22 21 18 19 17 18 17 17 16 12 10 11 12 13 9 13 11 23 23 22 21 21 19 18 18 20 17 13 17 16 14 13 9
8 5 5 5 6 13 15 8 7 12 16 20 25 24 19 17 14 15 15 14 13 11 13 10 20 22 20 19 25 23 22 21 20 18 16 17 15 16 18 12 17 15 13 10
5 10 7 7 5 4 3 2 2 7 16 10 11 13 18 15 9 11 7 1 11 13 14 11 22 21 24 22 24 22 20 19 18 17 17 15 14 16 14 18 18 13 12 10
3 3 10 13 9 6 9 9 8 7 4 14 16 16 9 11 11 18 12 11 11 11 15 23 27 19 25 26 24 21 19 17 21 19 15 12 15 18 17 17 16 13 10 10
3 4 2 3 6 1 4 7 4 11 23 21 19 18 15 14 15 20 15 11 5 9 10 22 17 25 25 26 23 20 17 23 21 18 17 15 13 14 16 14 14 12 11 9
2 3 2 2 4 12 13 10 13 15 21 27 19 17 14 14 15 20 12 9 6 13 14 18 17 23 24 25 22 21 23 22 21 20 16 16 15 15 13 12 10 9 8 9
2 4 3 4 5 12 11 9 8 15 16 13 2 8 12 14 15 13 10 8 6 7 14 19 23 18 20 23 23 22 23 23 18 17 16 15 17 16 14 11 9 7 8 10
8 5 6 7 11 9 4 12 9 15 15 11 9 7 10 12 10 11 10 8 7 6 12 20 19 19 22 24 24 24 24 25 14 18 16 16 16 14 13 8 4 7 7 3
4 8 4 2 12 7 11 13 13 11 13 12 11 10 9 9 10 12 8 10 13 14 6 17 22 23 24 24 24 22 26 25 15 18 16 17 16 16 14 13 12 12 10 10
Wind_Direction
278 268 252 268 273 271 275 272 276 277 273 246 251 244 245 246 240 250 255 243 237 250 252 246 250 231 240 242 237 240 240 247 248 241 240 240 239 234 229 227 221 210 201 201
278 256 260 260 267 278 277 275 270 273 271 277 275 267 266 251 246 241 245 253 258 254 255 253 256 253 252 248 243 239 243 243 238 237 236 242 240 233 223 219 211 203 199 199
281 292 300 291 267 264 265 263 272 278 283 272 261 255 261 255 253 249 246 250 254 253 252 250 253 259 259 253 241 233 236 239 236 228 229 227 241 241 205 204 199 199 197 198
286 287 273 279 273 270 267 271 276 274 264 260 253 262 254 249 250 250 246 243 246 253 258 256 255 254 251 247 247 244 236 231 227 219 224 206 214 213 208 194 198 196 194 191
287 293 281 273 274 263 268 276 277 268 268 257 255 256 257 250 244 240 240 245 244 242 238 244 248 254 254 249 240 234 228 218 218 205 213 205 216 211 202 198 169 177 176 180
272 317 291 286 287 267 271 273 267 260 261 254 249 251 251 246 250 265 260 254 250 245 244 244 245 247 247 248 243 228 216 213 211 216 209 218 200 219 181 177 170 168 170 176
314 300 322 295 298 251 247 253 262 252 245 252 249 257 256 258 248 256 250 250 244 250 255 240 244 244 238 240 230 226 215 218 217 207 201 202 201 199 166 157 168 166 169 177
315 308 333 357 300 310 255 243 251 268 264 267 239 242 254 252 259 248 294 276 264 250 254 248 241 242 245 214 213 214 207 205 194 190 188 185 182 181 171 176 167 167 169 169
308 303 308 302 270 304 277 255 249 262 276 291 265 270 273 240 247 241 243 228 222 239 256 263 258 250 236 220 199 198 189 192 180 177 174 171 172 172 170 160 153 160 155 155
295 298 304 294 252 271 249 329 261 231 253 258 258 261 268 212 237 218 219 160 284 272 266 260 250 236 205 173 160 194 181 166 166 162 160 162 161 151 139 144 153 146 145 155
295 294 294 280 265 273 224 218 248 181 255 272 258 293 255 210 208 222 216 78 305 306 330 317 314 100 128 180 153 150 152 149 145 152 145 130 130 138 145 141 141 140 146 152
299 301 279 279 271 222 243 294 271 245 273 273 267 272 301 284 168 188 86 37 350 51 78 173 209 190 200 150 148 145 143 146 145 133 133 134 140 140 139 142 143 147 151 163
339 272 292 284 257 27 1 278 253 261 220 257 270 281 305 99 104 82 62 5 338 357 86 104 176 206 159 145 143 144 145 140 140 135 136 138 137 138 140 143 147 152 154 162
316 270 261 270 283 162 220 237 214 220 253 271 265 275 308 309 33 135 70 350 324 336 84 98 334 302 114 148 143 148 141 141 138 139 137 137 139 142 145 147 151 152 160 161
255 260 272 274 279 286 287 285 272 271 270 270 277 282 243 277 291 311 347 332 328 336 63 123 58 179 142 110 133 140 137 138 140 138 138 140 141 147 149 153 158 160 160 163
207 261 271 275 276 272 270 269 269 264 271 275 281 282 272 256 276 292 298 303 308 321 342 138 144 157 157 156 157 140 139 139 138 136 139 144 148 148 148 152 153 160 156 136
264 254 276 276 277 284 276 264 252 257 260 269 272 278 285 281 276 284 288 283 286 287 307 152 150 173 171 185 139 142 138 141 143 143 147 145 138 137 151 152 158 162 133 172
243 253 260 265 295 251 265 306 312 295 289 296 294 271 277 287 285 277 273 278 281 284 283 146 160 175 205 171 150 138 148 150 148 149 146 145 149 138 153 159 159 138 142 158
223 240 272 263 253 285 307 7 359 351 289 299 293 295 285 269 280 282 266 265 266 266 275 164 174 173 153 182 146 152 153 153 152 148 149 124 140 159 149 180 142 141 156 162
219 218 255 288 274 261 46 144 20 301 271 10 330 273 263 290 273 263 205 224 345 339 333 174 158 168 164 185 149 158 158 157 153 124 115 142 170 139 177 155 141 165 157 169
294 217 233 248 252 261 37 32 353 237 4 335 318 306 311 289 312 311 321 321 339 315 299 169 156 157 182 153 153 165 160 142 126 130 139 181 143 149 161 147 160 170 183 165
294 313 311 269 241 250 358 299 227 320 313 308 297 290 300 305 294 301 283 312 302 274 205 162 169 174 162 151 165 153 150 126 127 140 170 135 142 164 154 160 156 178 157 165
298 206 281 241 268 293 313 283 281 279 272 275 269 265 278 292 288 286 295 292 267 282 186 185 148 153 152 158 164 160 131 129 144 175 132 139 162 135 149 152 169 174 182 174
297 141 221 290 292 302 314 313 346 317 321 349 279 282 277 274 280 288 306 277 243 243 191 169 154 151 153 157 159 161 145 149 162 135 137 153 127 138 161 162 185 172 171 173
317 186 285 254 290 311 331 331 343 328 330 356 352 326 317 306 309 309 325 288 262 236 230 160 147 151 153 157 164 159 164 136 163 139 145 152 141 152 118 93 99 131 89 74
309 320 332 317 325 0 327 335 2 325 347 356 345 341 327 309 312 324 327 319 252 191 236 134 143 148 153 157 165 164 133 136 152 142 160 159 153 156 149 130 100 94 101 93